CZ-4 DEB, 26313

Orbit data source: Space-Track

CZ-4 DEB, 26313 is space debris in SSO originally from a launch on Thu, 14 Oct 1999 UTC launched from the Taiyaun Space Center, China (TSC). Debris objects in space refer to the collection of defunct objects orbiting the Earth. Examples of debris include non-operational satellites, rocket bodies, and fragments generated from explosions, collisions, or faulty payload assembly.

Loading next visibility...
Identifier
26313, 1999-057GW
Orbit
SSO
Country
Flag of CNCN / PRC
Related business
Manufacturer
Unknown
Mission
Spacecraft
Bus & Motor
Unknown
Mass
Unknown
Launch date (UTC)
1999-10-14 (26 years ago)
Launch vehicle
Unknown
Launch site
Taiyaun Space Center, China (TSC)
Object type
Payload
Rocket body
Debris
Shape & HBR
Unknown shape, 0.1 m
Radar Cross Section
Small (<0.1 m²)

Expand to show TLE details & history
Last TLE update: 1 day ago

TLE from 1 day ago
0 CZ-4 DEB
1 26313U 99057GW  26035.95249443  .00003691  00000-0  79410-3 0  9994
2 26313  98.4613 100.8307 0073226 169.7523   6.8014 14.57469774362756
Epoch: 2026-02-04T22:51Z
TLE epoch observation values (Epoch: 2026-02-04T22:51:35.518Z)
Latitude
3.2109°
Longitude
163.29659°
Altitude
652.489 km
Speed
7.559 km/s
True Right ascension
18h 45m 13s
True Declination
3° 11' 29"
Sunlit
Object was in daylight at epoch
Visualization orbit readout
Latitude
Unknown
Longitude
Unknown
Altitude
Unknown
Speed
Unknown
Apparent Right ascension
Unknown
Apparent Declination
Unknown
Sunlit
N/A
Visualization observer readout
Local Sidereal Time
09:06:47
Azimuth
Unknown
Elevation
Unknown
Doppler factor
Unknown
Orbital elements
Apogee altitude
750.271 km
Perigee altitude
646.633 km
Semi-major axis
7,076.589 km
Eccentricity
0.00732
Inclination
98.4613°
RAAN
100.8307°
Arg. of periapsis
169.7523°
True anomaly
6.90169°
Mean anomaly
6.8014°
Eccentric anomaly
6.85145°
Mean motion
3.64592 °/min
Orbital period
98.74 mins
BSTAR
0.0007941
Loading maneuver chart data...
Computing Atmospheric mass density...
Loading historical data...
Loading historical data...
Loading historical data...
Loading historical data...
Loading historical data...
Loading historical data...
Loading historical data...

Documentation

Showing up to 5 results
|